{"data":{"norad_id":57222,"intl_designator":"2023-094E","name":"STARLINK-5870","alt_names":[],"object_type":"PAYLOAD","status":"ACTIVE","operator":null,"country":"US","launch_date":"2023-07-07","launch_site_code":"AFWTR","launch_vehicle":null,"mission":null,"orbit_class":"UNKNOWN","rcs_meters":null,"size_class":null,"mass_kg":null,"dimensions":null,"purposes":["comms"],"wikipedia_slug":null,"has_3d_model":false,"image_url":null,"decayed_at":null,"tle_current":{"epoch":"2026-09-20T13:42:50.918688Z","epoch_age_seconds":114803,"freshness":"FRESH","line1":"1 57222U 23094E   26263.57142267 -.00000741  00000+0 -17417-4 0  9996","line2":"2 57222  43.0040   9.8299 0001643 266.0740  93.9924 15.27569565177559","mean_motion":15.27569565,"eccentricity":0.0001643,"inclination_deg":43.004,"raan_deg":9.8299,"arg_perigee_deg":266.074,"mean_anomaly_deg":93.9924,"bstar":-1.7417e-5,"rev_number":17755,"period_min":94.267392660445,"perigee_km":481.95304435215,"apogee_km":484.20764037085,"semimajor_km":6861.2173423615,"source":"CELESTRAK","updated_at":"2026-09-21T09:00:33.584423Z"}}}